KO4T-4 Weather Reports


time (UTC)temp
C
wind
direction
speed
KPH
gust
KPH
rain 1hr
cm
rain 24hr
cm
rain mn
cm
humidity
%
barometer
mb
20260505114503 11 0 0.0 0.0 0.00 0.00 0.00 81 1016.0
20260505114003 11 0 0.0 0.0 0.00 0.00 0.00 81 1015.9
20260505113503 11 0 0.0 0.0 0.00 0.00 0.00 81 1015.8
20260505113002 10 0 0.0 0.0 0.00 0.00 0.00 83 1015.8
20260505112502 10 0 0.0 0.0 0.00 0.00 0.00 83 1015.7
20260505112002 10 0 0.0 0.0 0.00 0.00 0.00 83 1015.7
20260505111503 10 84 0.0 1.6 0.00 0.00 0.00 83 1015.7
20260505111003 10 86 0.0 1.6 0.00 0.00 0.00 85 1015.6
20260505110502 9 39 0.0 3.2 0.00 0.00 0.00 85 1015.6
20260505102002 9 309 0.0 3.2 0.00 0.00 0.00 84 1015.3
20260505101503 9 0 0.0 0.0 0.00 0.00 0.00 84 1015.3
20260505101003 9 0 0.0 0.0 0.00 0.00 0.00 83 1015.2
20260505100502 10 0 0.0 0.0 0.00 0.00 0.00 82 1015.2
20260505100003 10 0 0.0 0.0 0.00 0.00 0.00 81 1015.2
20260505095502 10 0 0.0 0.0 0.00 0.00 0.00 81 1015.2
20260505095002 10 0 0.0 0.0 0.00 0.00 0.00 80 1015.1
20260505094502 10 0 0.0 0.0 0.00 0.00 0.00 79 1015.1
20260505094003 10 0 0.0 0.0 0.00 0.00 0.00 78 1015.1
20260505093503 11 0 0.0 0.0 0.00 0.00 0.00 77 1015.1
20260505093003 11 0 0.0 0.0 0.00 0.00 0.00 77 1015.2
20260505092502 11 0 0.0 0.0 0.00 0.00 0.00 77 1015.1
20260505092003 11 0 0.0 0.0 0.00 0.00 0.00 76 1015.1
20260505091502 11 0 0.0 0.0 0.00 0.00 0.00 75 1015.1
20260505091003 11 85 0.0 1.6 0.00 0.00 0.00 75 1015.1
20260505090502 11 85 0.0 1.6 0.00 0.00 0.00 75 1014.9
20260505090002 11 79 0.0 1.6 0.00 0.00 0.00 75 1014.7
20260505085503 11 79 0.0 1.6 0.00 0.00 0.00 74 1014.7
20260505085002 12 80 0.0 1.6 0.00 0.00 0.00 74 1014.8
20260505084502 12 61 0.0 1.6 0.00 0.00 0.00 73 1014.8
20260505084003 12 335 0.0 1.6 0.00 0.00 0.00 72 1014.7
20260505083502 12 270 0.0 1.6 0.00 0.00 0.00 71 1014.6
20260505083002 12 265 0.0 1.6 0.00 0.00 0.00 68 1014.5
20260505082502 13 265 0.0 1.6 0.00 0.00 0.00 68 1014.5
20260505082003 13 247 0.0 3.2 0.00 0.00 0.00 66 1014.5
20260505081502 13 88 0.0 4.8 0.00 0.00 0.00 66 1014.4
20260505081002 13 83 0.0 4.8 0.00 0.00 0.00 65 1014.4
20260505080503 13 79 0.0 3.2 0.00 0.00 0.00 65 1014.4
20260505080002 13 69 1.6 4.8 0.00 0.00 0.00 64 1014.3
20260505075502 14 72 0.0 6.4 0.00 0.00 0.00 64 1014.3
20260505075003 13 73 0.0 6.4 0.00 0.00 0.00 64 1014.3
20260505074502 14 90 0.0 4.8 0.00 0.00 0.00 63 1014.3
20260505074003 14 91 0.0 6.4 0.00 0.00 0.00 62 1014.3
20260505073502 14 90 0.0 6.4 0.00 0.00 0.00 62 1014.2
20260505073002 15 87 0.0 4.8 0.00 0.00 0.00 61 1014.0
20260505072502 15 88 0.0 4.8 0.00 0.00 0.00 59 1013.9
20260505072002 15 86 0.0 3.2 0.00 0.00 0.00 59 1014.0
20260505071503 15 83 0.0 3.2 0.00 0.00 0.00 58 1014.1
20260505071002 15 0 0.0 0.0 0.00 0.00 0.00 58 1014.1
20260505070502 16 0 0.0 0.0 0.00 0.00 0.00 57 1014.1
20260505070003 16 0 0.0 0.0 0.00 0.00 0.00 56 1014.0
20260505065502 16 0 0.0 0.0 0.00 0.00 0.00 55 1014.1
20260505065002 16 0 0.0 0.0 0.00 0.00 0.00 54 1014.1
20260505064503 16 0 0.0 0.0 0.00 0.00 0.00 53 1014.0
20260505064002 17 229 0.0 6.4 0.00 0.00 0.00 53 1014.1
20260505063503 17 235 1.6 6.4 0.00 0.00 0.00 52 1014.2
20260505063003 17 259 1.6 8.0 0.00 0.00 0.00 51 1014.2
20260505062502 18 244 3.2 8.0 0.00 0.00 0.00 50 1014.2
20260505062002 18 226 4.8 12.9 0.00 0.00 0.00 49 1014.3
20260505061502 18 220 4.8 17.7 0.00 0.00 0.00 49 1014.3
20260505061002 18 222 3.2 17.7 0.00 0.00 0.00 49 1014.3
20260505060502 17 228 3.2 14.5 0.00 0.00 0.00 50 1014.2
20260505060002 17 221 3.2 16.1 0.00 0.00 0.00 53 1014.2
20260505055503 16 206 1.6 16.1 0.00 0.00 0.00 54 1014.3
20260505055002 16 201 0.0 9.7 0.00 0.00 0.00 56 1014.3
20260505054502 15 192 0.0 4.8 0.00 0.00 0.00 58 1014.3
20260505054003 16 274 0.0 1.6 0.00 0.00 0.00 57 1014.2
20260505053502 16 0 0.0 0.0 0.00 0.00 0.00 55 1014.2
20260505053002 16 0 0.0 0.0 0.00 0.00 0.00 54 1014.2
20260505052502 16 139 0.0 1.6 0.00 0.00 0.00 53 1014.3
20260505052002 17 139 0.0 1.6 0.00 0.00 0.00 52 1014.2
20260505051503 17 134 0.0 1.6 0.00 0.00 0.00 51 1014.2
20260505051003 17 154 0.0 4.8 0.00 0.00 0.00 51 1014.3
20260505050502 17 181 1.6 9.7 0.00 0.00 0.00 51 1014.3
20260505041502 18 227 1.6 11.3 0.00 0.00 0.00 48 1014.3
20260505041002 18 217 1.6 8.0 0.00 0.00 0.00 48 1014.3
20260505040502 18 213 1.6 8.0 0.00 0.00 0.00 48 1014.3
20260505040005 18 206 1.6 6.4 0.00 0.00 0.00 48 1014.4
20260505035502 18 202 1.6 8.0 0.00 0.00 0.00 48 1014.3
20260505035002 18 206 1.6 8.0 0.00 0.00 0.00 48 1014.4
20260505034503 18 209 1.6 6.4 0.00 0.00 0.00 48 1014.4
20260505034002 18 217 1.6 6.4 0.00 0.00 0.00 47 1014.4
20260505033502 18 206 1.6 8.0 0.00 0.00 0.00 47 1014.6
20260505033003 18 200 0.0 8.0 0.00 0.00 0.00 47 1014.5
20260505032502 18 222 0.0 3.2 0.00 0.00 0.00 48 1014.6
20260505032002 18 193 0.0 6.4 0.00 0.00 0.00 48 1014.5
20260505031503 18 192 0.0 6.4 0.00 0.00 0.00 48 1014.5
20260505031002 18 186 0.0 4.8 0.00 0.00 0.00 48 1014.5
20260505030502 18 197 0.0 4.8 0.00 0.00 0.00 47 1014.5
20260505030003 18 214 0.0 3.2 0.00 0.00 0.00 47 1014.5
20260505025502 18 204 0.0 3.2 0.00 0.00 0.00 47 1014.6
20260505025002 18 213 0.0 6.4 0.00 0.00 0.00 47 1014.6
20260505024503 18 212 0.0 6.4 0.00 0.00 0.00 47 1014.6
20260505024002 18 211 0.0 4.8 0.00 0.00 0.00 47 1014.6
20260505023502 18 213 0.0 6.4 0.00 0.00 0.00 47 1014.5
20260505023003 18 213 1.6 6.4 0.00 0.00 0.00 47 1014.5
20260505022502 18 207 1.6 4.8 0.00 0.00 0.00 47 1014.4
20260505022002 18 208 1.6 8.0 0.00 0.00 0.00 47 1014.4
20260505021503 18 215 1.6 8.0 0.00 0.00 0.00 47 1014.3
20260505021002 18 200 1.6 8.0 0.00 0.00 0.00 47 1014.3
20260505020502 18 191 0.0 11.3 0.00 0.00 0.00 47 1014.3
20260505020003 18 185 0.0 11.3 0.00 0.00 0.00 47 1014.2
20260505015502 18 52 0.0 3.2 0.00 0.00 0.00 46 1014.2
20260505015002 18 143 0.0 6.4 0.00 0.00 0.00 45 1014.1
20260505014502 19 159 0.0 6.4 0.00 0.00 0.00 44 1014.1
20260505014002 19 172 0.0 3.2 0.00 0.00 0.00 45 1014.1
20260505013502 19 155 0.0 3.2 0.00 0.00 0.00 44 1014.1
20260505013002 19 165 0.0 3.2 0.00 0.00 0.00 44 1014.1
20260505012502 19 127 0.0 4.8 0.00 0.00 0.00 44 1014.0
20260505012002 19 126 0.0 4.8 0.00 0.00 0.00 43 1014.0
20260505011502 19 0 0.0 0.0 0.00 0.00 0.00 43 1013.9
20260505011002 20 215 0.0 3.2 0.00 0.00 0.00 42 1013.9
20260505010502 20 210 1.6 6.4 0.00 0.00 0.00 41 1013.9
20260505010002 20 214 1.6 8.0 0.00 0.00 0.00 41 1013.8
20260505005502 20 208 1.6 8.0 0.00 0.00 0.00 41 1013.7
20260505005002 20 181 1.6 6.4 0.00 0.00 0.00 40 1013.5
20260505004502 20 173 1.6 8.0 0.00 0.00 0.00 40 1013.5
20260505004002 20 186 0.0 8.0 0.00 0.00 0.00 40 1013.3
20260505003502 20 200 0.0 4.8 0.00 0.00 0.00 39 1013.3
20260505003002 20 221 0.0 3.2 0.00 0.00 0.00 39 1013.3
20260505002502 20 212 1.6 6.4 0.00 0.00 0.00 39 1013.3
20260505002002 20 200 1.6 6.4 0.00 0.00 0.00 38 1013.3
20260505001502 21 195 0.0 8.0 0.00 0.00 0.00 38 1013.2
20260505001002 21 199 0.0 8.0 0.00 0.00 0.00 38 1013.1
20260505000503 21 193 1.6 6.4 0.00 0.00 0.00 38 1013.3
20260505000002 21 195 1.6 8.0 0.00 0.00 0.00 37 1013.2
20260504235502 21 177 0.0 8.0 0.00 0.00 0.00 36 1013.2
20260504235002 22 152 0.0 6.4 0.00 0.00 0.00 36 1013.1
20260504234502 22 169 0.0 3.2 0.00 0.00 0.00 36 1013.1
20260504234002 22 169 0.0 1.6 0.00 0.00 0.00 36 1013.2
20260504233502 22 200 1.6 4.8 0.00 0.00 0.00 35 1013.1
20260504233002 22 188 1.6 4.8 0.00 0.00 0.00 35 1013.2
20260504232502 23 207 1.6 8.0 0.00 0.00 0.00 34 1013.1
20260504232002 23 220 3.2 8.0 0.00 0.00 0.00 34 1013.1
20260504231502 23 215 3.2 9.7 0.00 0.00 0.00 34 1013.2
20260504231002 23 205 3.2 14.5 0.00 0.00 0.00 34 1013.0
20260504230502 23 200 4.8 14.5 0.00 0.00 0.00 33 1013.1
20260504230002 23 213 3.2 19.3 0.00 0.00 0.00 33 1013.0
20260504225502 24 209 3.2 19.3 0.00 0.00 0.00 34 1013.0
20260504225002 24 187 3.2 12.9 0.00 0.00 0.00 34 1013.0
20260504224502 24 175 3.2 11.3 0.00 0.00 0.00 35 1012.9
20260504224002 24 166 3.2 11.3 0.00 0.00 0.00 34 1012.9
20260504223502 24 177 4.8 11.3 0.00 0.00 0.00 35 1013.0
20260504223002 24 189 4.8 22.5 0.00 0.00 0.00 34 1013.0
20260504222502 24 188 4.8 22.5 0.00 0.00 0.00 34 1013.0
20260504222002 25 188 4.8 17.7 0.00 0.00 0.00 34 1012.9
20260504221502 25 196 4.8 17.7 0.00 0.00 0.00 33 1012.9
20260504221002 25 203 4.8 16.1 0.00 0.00 0.00 35 1012.8
20260504220502 25 197 4.8 14.5 0.00 0.00 0.00 34 1012.9
20260504220002 25 191 4.8 12.9 0.00 0.00 0.00 34 1012.8
20260504215502 25 197 4.8 16.1 0.00 0.00 0.00 33 1012.8
20260504215002 25 191 4.8 16.1 0.00 0.00 0.00 32 1012.9
20260504214502 25 192 3.2 11.3 0.00 0.00 0.00 31 1012.9
20260504214002 26 200 3.2 9.7 0.00 0.00 0.00 31 1012.9
20260504213502 26 187 3.2 12.9 0.00 0.00 0.00 31 1012.9
20260504213002 26 186 4.8 12.9 0.00 0.00 0.00 30 1012.9
20260504212502 25 190 3.2 14.5 0.00 0.00 0.00 32 1012.9
20260504212003 26 192 4.8 14.5 0.00 0.00 0.00 31 1012.9
20260504211502 25 192 4.8 14.5 0.00 0.00 0.00 31 1012.9
20260504211003 26 177 3.2 14.5 0.00 0.00 0.00 31 1012.9
20260504210502 26 187 3.2 17.7 0.00 0.00 0.00 32 1012.9
20260504210002 26 207 3.2 17.7 0.00 0.00 0.00 32 1012.8
20260504205502 26 208 3.2 12.9 0.00 0.00 0.00 31 1012.9
20260504205002 26 200 3.2 11.3 0.00 0.00 0.00 31 1012.9
20260504204502 26 198 3.2 14.5 0.00 0.00 0.00 31 1013.0
20260504204002 26 197 3.2 14.5 0.00 0.00 0.00 30 1013.0
20260504203502 26 193 3.2 11.3 0.00 0.00 0.00 30 1013.1
20260504203002 26 179 1.6 9.7 0.00 0.00 0.00 30 1013.1
20260504202502 27 173 1.6 11.3 0.00 0.00 0.00 31 1013.1
20260504202002 27 197 1.6 12.9 0.00 0.00 0.00 29 1013.2
20260504201502 26 194 3.2 12.9 0.00 0.00 0.00 31 1013.3
20260504201002 26 175 3.2 8.0 0.00 0.00 0.00 30 1013.3
20260504200502 26 181 1.6 14.5 0.00 0.00 0.00 33 1013.3
20260504200002 26 185 1.6 14.5 0.00 0.00 0.00 34 1013.5
20260504195501 26 194 3.2 11.3 0.00 0.00 0.00 32 1013.4
20260504195002 26 209 4.8 11.3 0.00 0.00 0.00 34 1013.6
20260504194502 26 195 3.2 11.3 0.00 0.00 0.00 33 1013.6
20260504194002 26 168 3.2 11.3 0.00 0.00 0.00 31 1013.7
20260504193502 26 273 3.2 9.7 0.00 0.00 0.00 33 1013.7
20260504193002 25 273 3.2 9.7 0.00 0.00 0.00 32 1013.7
20260504192502 26 205 3.2 14.5 0.00 0.00 0.00 34 1013.8
20260504192002 26 194 3.2 14.5 0.00 0.00 0.00 34 1013.9
20260504191502 26 159 3.2 11.3 0.00 0.00 0.00 33 1013.9
20260504191002 26 184 3.2 9.7 0.00 0.00 0.00 35 1014.0
20260504190502 25 193 3.2 11.3 0.00 0.00 0.00 35 1014.0
20260504190002 25 185 3.2 11.3 0.00 0.00 0.00 35 1014.0
20260504185502 25 187 1.6 11.3 0.00 0.00 0.00 31 1014.1
20260504185002 25 186 3.2 8.0 0.00 0.00 0.00 35 1014.1
20260504184502 25 240 3.2 9.7 0.00 0.00 0.00 38 1014.1
20260504184002 24 255 3.2 9.7 0.00 0.00 0.00 35 1014.2
20260504183502 24 312 3.2 8.0 0.00 0.00 0.00 36 1014.3
20260504183002 23 322 3.2 9.7 0.00 0.00 0.00 37 1014.4
20260504182502 23 290 3.2 9.7 0.00 0.00 0.00 35 1014.5
20260504182001 23 297 3.2 9.7 0.00 0.00 0.00 36 1014.5
20260504181502 23 302 3.2 9.7 0.00 0.00 0.00 38 1014.5
20260504181002 23 306 3.2 11.3 0.00 0.00 0.00 38 1014.6
20260504180501 23 309 3.2 11.3 0.00 0.00 0.00 37 1014.6
20260504180002 23 291 4.8 9.7 0.00 0.00 0.00 38 1014.7
20260504175502 23 275 4.8 9.7 0.00 0.00 0.00 39 1014.7
20260504175002 23 331 4.8 9.7 0.00 0.00 0.00 39 1014.7
20260504174502 23 334 3.2 9.7 0.00 0.00 0.00 36 1014.7
20260504174002 23 327 3.2 8.0 0.00 0.00 0.00 34 1014.7
20260504173501 23 259 3.2 8.0 0.00 0.00 0.00 36 1014.7
20260504173002 24 235 1.6 8.0 0.00 0.00 0.00 34 1014.7
20260504172501 24 169 1.6 6.4 0.00 0.00 0.00 38 1014.8
20260504172002 23 256 1.6 6.4 0.00 0.00 0.00 35 1014.7
20260504171502 23 283 1.6 6.4 0.00 0.00 0.00 34 1014.8
20260504171002 23 264 3.2 8.0 0.00 0.00 0.00 39 1015.0
20260504170502 23 260 3.2 8.0 0.00 0.00 0.00 39 1015.1
20260504151002 19 282 1.6 6.4 0.00 0.00 0.00 43 1016.8
20260504150501 19 275 1.6 8.0 0.00 0.00 0.00 46 1017.0
20260504141001 16 287 1.6 6.4 0.00 0.00 0.00 53 1016.8
20260504140502 16 312 1.6 6.4 0.00 0.00 0.00 58 1016.8
20260504130501 13 0 0.0 0.0 0.00 0.00 0.00 71 1016.3